Regional Weather Roundup
Issued by NWS

Home | Current Version | Previous Version | Graphics & Text | Print | Product List | Glossary On
Versions: 1 2 3 4 5 6 7 8 9 10 11 12 13 14 15 16 17 18 19 20 21 22 23 24 25 26 27 28 29 30 31 32 33 34 35 36 37 38 39 40 41 42 43 44 45 46 47 48 49 50
259
ASUS45 KTFX 291410
RWRMT
MONTANA REGIONAL WEATHER ROUNDUP
NATIONAL WEATHER SERVICE GREAT FALLS MT
800 AM MDT SAT APR 29 2017

NOTE: "FAIR" INDICATES FEW OR NO CLOUDS BELOW 12000 FEET WITH NO
SIGNIFICANT WEATHER AND/OR OBSTRUCTIONS TO VISIBILITY.

MTZ001>007-043-291500-
WEST OF THE DIVIDE

CITY           SKY/WX    TMP DP  RH WIND       PRES   REMARKS
KALISPELL      CLOUDY    40  40 100 SW3       30.23S
MISSOULA       CLOUDY    37  33  85 CALM      30.29R
BUTTE          SUNNY     32  27  81 E5        30.23R
MULLAN PASS    LGT SNOW  31  30  96 CALM      30.20F VSB 3/4
ANACONDA         N/A     36  28  75 CALM      30.24S
DEER LODGE       N/A     37  28  70 CALM      30.27S
EUREKA           N/A     37  36  93 CALM      30.22S
HAMILTON         N/A     36  27  69 S7        30.28R WCI  30
LIBBY            N/A     37  37 100 CALM      30.24S VSB 3/4
$$

MTZ008-052>055-291500-
SOUTHWEST MONTANA

CITY           SKY/WX    TMP DP  RH WIND       PRES   REMARKS
BOZEMAN        MOSUNNY   38  33  82 S8        30.24R
DILLON         CLOUDY    34  26  72 CALM      30.22R
W YELLOWSTONE  SUNNY     25  21  86 CALM      30.23R
ENNIS          PTSUNNY   34  28  80 SE3       30.27R
THREE FORKS      N/A     35  35 100 CALM      30.20R
$$

MTZ009-010-012-014-046-048-049-054-291500-
EAST SLOPES AND CENTRAL MONTANA

CITY           SKY/WX    TMP DP  RH WIND       PRES   REMARKS
CUT BANK       PTSUNNY   39  34  82 CALM      30.15S
GREAT FALLS    SUNNY     40  34  79 SW8       30.19R
MALMSTROM AFB  SUNNY     38  36  90 SW10      30.20R WCI  31
HELENA         SUNNY     38  34  85 CALM      30.23R
AUGUSTA          N/A     37  31  79 W3        30.17R
BOWMANS CRNR     N/A     34  32  92 S9        30.17S WCI  27
CHOTEAU          N/A     39  32  75 S7        30.19R
FAIRFIELD        N/A     39  30  71 SW9       30.17R
POWER            N/A     37  34  88 SW7       30.17R WCI  32
RAYNESFORD       N/A     37  32  83 E5        30.20R
ULM              N/A     39  34  83 S6        30.20R
$$

MTZ011-013-016-021-045-047-050-051-291500-
NORTH CENTRAL MONTANA

CITY           SKY/WX    TMP DP  RH WIND       PRES   REMARKS
HAVRE          CLOUDY    36  33  89 CALM      30.20R
LEWISTOWN      SUNNY     34  30  85 E7        30.21R WCI  28
CHINOOK          N/A     36  30  80 E5        30.22S
DENTON           N/A     34  32  92 MISG      30.18R
FORT BENTON      N/A     39  36  87 MISG      30.22
GEYSER           N/A     39  32  76 SW5       30.20R
GRASS RANGE      N/A     38  34  88 W3        30.20R
JUDITH GAP       N/A     34 N/A N/A S12       30.21R WCI  25
STANFORD         N/A     38  32  81 CALM      30.20R
WINIFRED         N/A     40  35  82 S6        30.20R
$$

MTZ017>020-022>027-061-062-291500-
NORTHEAST MONTANA

CITY           SKY/WX    TMP DP  RH WIND       PRES   REMARKS
GLASGOW        SUNNY     41  35  79 SE3       30.25R
JORDAN           N/A     32  30  92 W3        30.25R
SIDNEY         MOSUNNY   42  32  67 CALM      30.25R
WOLF POINT     SUNNY     42  35  76 W3        30.27R
MALTA          SUNNY     34  34 100 SW5       30.24R
PLENTYWOOD       N/A     39  36  87 SW3       30.25R
POPLAR           N/A     41  36  81 W6        30.27R
$$

MTZ028>42-056>058-291500-
SOUTHCENTRAL AND SOUTHEAST MONTANA

CITY           SKY/WX    TMP DP  RH WIND       PRES   REMARKS
BAKER          SUNNY     41  28  60 NW5       30.26R
BILLINGS       MOSUNNY   37  33  85 SW10      30.25R WCI  30
LIVINGSTON     FOG       32  32 100 NW8       30.24R VSB<1/4 WCI  25
MILES CITY     SUNNY     42  34  73 S6        30.25R
BIG TIMBER     CLOUDY    36  34  93 SE3       30.27R
LAUREL           N/A     36  32  85 SE3       30.20F
ROUNDUP          N/A     37  33  85 S7        30.14R WCI  31
$$

REGIONAL REPORTS...DAKOTAS

CITY           SKY/WX    TMP DP  RH WIND       PRES   REMARKS
WILLISTON      SUNNY     40  28  62 CALM      30.25R
MINOT          SUNNY     52  25  35 SW10      30.22S
DICKINSON      SUNNY     46  25  43 S7        30.24R
BEACH            N/A     46  27  46 SW8       30.26F
TIOGA            N/A     41  23  48 CALM      30.25R
WATFORD CITY     N/A     45  28  53 W8        30.23F
BISMARCK       MOSUNNY   37  26  64 CALM      30.30R
GRAND FORKS    MOSUNNY   42  32  67 CALM      30.31R
FARGO          SUNNY     44  28  53 S5        30.33R
BUFFALO SD       N/A     40  27  59 CALM      30.20R
RAPID CITY     CLOUDY    40  26  57 W6        30.29R
$$

REGIONAL REPORTS...WYOMING/IDAHO/WASHINGTON

CITY           SKY/WX    TMP DP  RH WIND       PRES   REMARKS
GILLETTE       SUNNY     23  22  96 S8        30.27R WCI  14
SHERIDAN       CLOUDY    29  24  82 CALM      30.25R
BUFFALO WY     CLOUDY    29  16  58 SW7       30.25R WCI  22
CODY           CLOUDY    34  29  82 S3        30.25R
YELLOWSTONE LA   N/A     20  16  84 CALM      30.21S
IDAHO FALLS    SUNNY     33  28  81 VRB5      30.22R
SALMON         SUNNY     30  27  86 CALM      30.27R
BOISE          SUNNY     37  32  82 CALM      30.24R
SPOKANE        MOSUNNY   40  35  83 S9        30.23S
$$

REGIONAL REPORTS...ALBERTA

CITY           SKY/WX    TMP DP  RH WIND       PRES   REMARKS
EDMONTON       MOSUNNY   39  32  75 SW6       30.08S
CALGARY        MOSUNNY   37  34  87 SW3       30.11S
LETHBRIDGE     MOSUNNY   37  36  93 W9        30.13S WCI  31
MEDICINE HAT   MOSUNNY   37  32  81 CALM      30.16R
WATERTON GATE    N/A     41  30  65 SW13        N/A
CARDSTON         N/A     41  34  75 CALM        N/A
MILK RIVER       N/A     39  34  81 W5          N/A
ONEFOUR          N/A     36  30  80 E10         N/A  WCI  28
$$

REGIONAL REPORTS...SASKATCHEWAN

CITY           SKY/WX    TMP DP  RH WIND       PRES   REMARKS
SWIFT CURRENT  SUNNY     37  30  75 SW7G30    30.18R
REGINA         SUNNY     39  36  87 W7        30.21R
SASKATOON      MOSUNNY   37  34  87 W7        30.16R
CYPRESS HILLS    N/A     37  27  65 SW2         N/A
VAL MARIE        N/A     32  30  93 CALM        N/A
ROCKGLEN         N/A     39  37  93 SW7         N/A
ASSINIBOIA       N/A     36  30  80 S8          N/A  WCI  29
$$




USA.gov is the U.S. government's official web portal to all federal, state and local government web resources and services.